COSMOS 886 DEB, 9823

Orbit data source: Space-Track

COSMOS 886 DEB, 9823 is space debris in LEO originally from a launch on Mon, 27 Dec 1976 UTC launched from the Tyuratam Missile And Space Complex (TTMTR). Debris objects in space refer to the collection of defunct objects orbiting the Earth. Examples of debris include non-operational satellites, rocket bodies, and fragments generated from explosions, collisions, or faulty payload assembly.

Loading next visibility...
Identifier
9823, 1976-126AK
Orbit
LEO
Country
Flag of CISCIS
Related business
Manufacturer
Unknown
Mission
Spacecraft
Bus & Motor
Unknown
Mass
Unknown
Launch date (UTC)
1976-12-27 (49 years ago)
Launch vehicle
Unknown
Launch site
Tyuratam Missile And Space Complex (TTMTR)
Object type
Payload
Rocket body
Debris
Shape & HBR
Unknown shape, 0.1 m
Radar Cross Section
Medium (>0.1 m² and <1 m²)

Expand to show TLE details & history
Last TLE update: 23 hours ago

TLE from 23 hours ago
0 COSMOS 886 DEB
1 09823U 76126AK  26175.12779260  .00001497  00000-0  68990-3 0  9995
2 09823  65.7964 132.2087 0905974  16.5343 346.3266 13.00443380315971
Epoch: 2026-06-24T03:04Z
TLE epoch observation values (Epoch: 2026-06-24T03:04:01.280Z)
Latitude
-0.00004°
Longitude
173.91389°
Altitude
593.81 km
Speed
7.887 km/s
True Right ascension
08h 48m 50s
True Declination
0° 00' 00"
Sunlit
Object was in daylight at epoch
Visualization orbit readout
Latitude
Unknown
Longitude
Unknown
Altitude
Unknown
Speed
Unknown
Apparent Right ascension
Unknown
Apparent Declination
Unknown
Sunlit
N/A
Visualization observer readout
Local Sidereal Time
13:10:40
Azimuth
Unknown
Elevation
Unknown
Doppler factor
Unknown
Orbital elements
Apogee altitude
1,950.808 km
Perigee altitude
567.015 km
Semi-major axis
7,637.048 km
Eccentricity
0.0906
Inclination
65.7964°
RAAN
132.2087°
Arg. of periapsis
16.5343°
True anomaly
343.57188°
Mean anomaly
346.3266°
Eccentric anomaly
344.98149°
Mean motion
3.25203 °/min
Orbital period
110.7 mins
BSTAR
0.0006899
Loading maneuver chart data...
Computing Atmospheric mass density...
Loading historical data...
Loading historical data...
Loading historical data...
Loading historical data...
Loading historical data...
Loading historical data...
Loading historical data...

Documentation

Showing up to 5 results
|